This is the latest recevied weather packets stored in our database for station/object KJ4EWA. If no packets are shown the sender has not sent any weather packets the latest 10 day(s).
| Time | Temp. | Humidity | Pressure | Rain* | Wind** | Luminosity | Snow |
|---|---|---|---|---|---|---|---|
| 1777476348 | 25.56° C | 95% | 1019.4 hPa | 0 mm | - | 595 W/m² | - |
| 1777476044 | 25.56° C | 94% | 1019.6 hPa | 0 mm | - | 137 W/m² | - |
| 1777475740 | 25.56° C | 95% | 1019.5 hPa | 0 mm | - | 221 W/m² | - |
| 1777475437 | 25.56° C | 95% | 1019.6 hPa | 0 mm | - | 110 W/m² | - |
| 1777475132 | 25.56° C | 94% | 1019.6 hPa | 0 mm | - | 175 W/m² | - |
| 1777474829 | 25.56° C | 95% | 1019.4 hPa | 0 mm | - | 673 W/m² | - |
| 1777474524 | 25.56° C | 96% | 1019.6 hPa | 0 mm | - | 242 W/m² | - |
| 1777474221 | 25.56° C | 96% | 1019.9 hPa | 0 mm | - | 273 W/m² | - |
| 1777473919 | 25° C | 99% | 1019.9 hPa | 0 mm | - | 280 W/m² | - |
| 1777473616 | 24.44° C | 99% | 1019.8 hPa | 0 mm | - | 203 W/m² | - |
| 1777473312 | 24.44° C | 99% | 1019.4 hPa | 0 mm | - | 174 W/m² | - |
| 1777473008 | 23.89° C | 99% | 1019.4 hPa | 0 mm | - | 232 W/m² | - |
| 1777472705 | 23.89° C | 99% | 1019.3 hPa | 0 mm | - | 164 W/m² | - |
| 1777472401 | 23.89° C | 99% | 1019.4 hPa | 0 mm | - | 196 W/m² | - |
| 1777472099 | 23.89° C | 99% | 1019.5 hPa | 0 mm | - | 82 W/m² | - |
| 1777471793 | 23.89° C | 99% | 1019.8 hPa | 0 mm | - | 56 W/m² | - |
| 1777471490 | 23.89° C | 99% | 1020.2 hPa | 0 mm | - | 56 W/m² | - |
| 1777471187 | 23.89° C | 99% | 1020.1 hPa | 0 mm | - | 65 W/m² | - |
| 1777470884 | 23.89° C | 99% | 1020.2 hPa | 0 mm | - | 86 W/m² | - |
| 1777470581 | 23.89° C | 99% | 1020.3 hPa | 0 mm | - | 92 W/m² | - |
| 1777470277 | 23.89° C | 99% | 1020.4 hPa | 0 mm | - | 79 W/m² | - |
| 1777469973 | 23.89° C | 99% | 1020.2 hPa | 0 mm | - | 70 W/m² | - |
| 1777469669 | 23.33° C | 99% | 1020.2 hPa | 0 mm | - | 60 W/m² | - |
| 1777469365 | 23.33° C | 99% | 1019.9 hPa | 0 mm | - | 76 W/m² | - |
| 1777469055 | 23.33° C | 99% | 1019.9 hPa | 0 mm | - | 161 W/m² | - |
* Rain latest hour (hover to see other rain measurements)
** Current wind speed in m/s (hover to see current wind gust speed)